Location: Erba
(45.8000°N, 9.2500°E)
Time: 12:06:02
(UTC+01:00)

ISS - Pass Details

Date: 12 January 2019
Orbit: 404 x 407 km, 51.6° (Epoch: 17 January)

Event Time Altitude Azimuth Distance (km) Brightness Sun altitude
Exits shadow 05:03:58 12° 114° (ESE) 1,361 -0.4 -30.4°
Drops below altitude 10° 05:04:15 10° 114° (ESE) 1,472 -0.2 -30.3°
Sets 05:06:18 0° 116° (ESE) 2,323 1.0 -30.0°
